L2B YBSU-YMHB

Flight info

Callsign L2B
Flight time 2h 56m
Altitude 40000
Route MOOLO Q35 SANEG H91 IGDAM/N0421F410 H652 TESAT/N0417F400 H65 WOL H20 OTKED J22 NUNPA/N0416F410 J163 VEKLO DCT IPLET
Aircraft CL60/M-SBDE1E2E3FGHIJ1J4J5J7M3RWXYZ/LB1V1D1

Departure

Time 2026-04-21 07:32
Airport Sunshine Coast Airport (YBSU)

Arrival

Time 2026-04-21 10:28
Airport Hobart International Airport (YMHB)
Time Latitude Longitude Altitude Speed Heading
2026-04-21 06:58 -26.60347 153.08792 25 ft 0 kts 232°
2026-04-21 07:23 -26.60348 153.08791 24 ft 1 kts 241°
2026-04-21 07:23 -26.60345 153.08783 24 ft 2 kts 334°
2026-04-21 07:23 -26.60323 153.08794 24 ft 3 kts 57°
2026-04-21 07:23 -26.60318 153.08810 24 ft 2 kts 76°
2026-04-21 07:24 -26.60314 153.08829 24 ft 1 kts 81°
2026-04-21 07:24 -26.60313 153.08841 24 ft 1 kts 79°
2026-04-21 07:24 -26.60305 153.08861 24 ft 4 kts 52°
2026-04-21 07:24 -26.60271 153.08887 24 ft 7 kts 359°
2026-04-21 07:25 -26.60216 153.08844 24 ft 11 kts 322°
2026-04-21 07:25 -26.60142 153.08780 24 ft 15 kts 322°
2026-04-21 07:25 -26.60047 153.08699 25 ft 17 kts 322°
2026-04-21 07:25 -26.59957 153.08623 25 ft 15 kts 321°
2026-04-21 07:26 -26.59870 153.08548 25 ft 16 kts 322°
2026-04-21 07:26 -26.59770 153.08462 26 ft 19 kts 323°
2026-04-21 07:26 -26.59658 153.08365 27 ft 19 kts 323°
2026-04-21 07:26 -26.59573 153.08293 28 ft 11 kts 323°
2026-04-21 07:27 -26.59515 153.08243 29 ft 11 kts 322°
2026-04-21 07:27 -26.59453 153.08191 30 ft 9 kts 326°
2026-04-21 07:27 -26.59395 153.08199 30 ft 9 kts 54°
2026-04-21 07:27 -26.59370 153.08241 30 ft 6 kts 56°
2026-04-21 07:28 -26.59328 153.08283 30 ft 9 kts 13°
2026-04-21 07:28 -26.59257 153.08250 31 ft 12 kts 323°
2026-04-21 07:28 -26.59176 153.08182 31 ft 16 kts 323°
2026-04-21 07:28 -26.59076 153.08096 31 ft 19 kts 322°
2026-04-21 07:29 -26.58955 153.07993 30 ft 23 kts 322°
2026-04-21 07:29 -26.58816 153.07872 28 ft 25 kts 322°
2026-04-21 07:29 -26.58676 153.07753 26 ft 24 kts 322°
2026-04-21 07:29 -26.58543 153.07637 23 ft 23 kts 322°
2026-04-21 07:30 -26.58447 153.07532 22 ft 16 kts 292°
2026-04-21 07:30 -26.58414 153.07434 21 ft 10 kts 324°
2026-04-21 07:30 -26.58355 153.07419 20 ft 7 kts 33°
2026-04-21 07:30 -26.58340 153.07461 20 ft 5 kts 116°
2026-04-21 07:31 -26.58350 153.07471 21 ft 0 kts 143°
2026-04-21 07:31 -26.58561 153.07652 24 ft 83 kts 141°
2026-04-21 07:31 -26.59205 153.08209 61 ft 144 kts 142°
2026-04-21 07:31 -26.60031 153.08960 538 ft 160 kts 140°
2026-04-21 07:32 -26.60888 153.09758 1304 ft 163 kts 139°
2026-04-21 07:32 -26.61763 153.10545 2137 ft 163 kts 140°
2026-04-21 07:32 -26.62601 153.11287 2857 ft 151 kts 142°
2026-04-21 07:32 -26.63447 153.11992 3310 ft 159 kts 143°
2026-04-21 07:33 -26.64387 153.12795 3715 ft 182 kts 139°
2026-04-21 07:33 -26.65293 153.13855 4295 ft 196 kts 132°
2026-04-21 07:33 -26.66199 153.15031 4959 ft 204 kts 133°
2026-04-21 07:33 -26.67125 153.16232 5651 ft 210 kts 133°
2026-04-21 07:34 -26.68092 153.17485 6392 ft 214 kts 133°
2026-04-21 07:34 -26.69039 153.18712 7117 ft 207 kts 133°
2026-04-21 07:34 -26.69990 153.19945 7807 ft 221 kts 133°
2026-04-21 07:34 -26.71041 153.21303 8601 ft 246 kts 132°
2026-04-21 07:35 -26.72186 153.22786 9541 ft 263 kts 132°
2026-04-21 07:35 -26.73395 153.24355 10365 ft 271 kts 132°
2026-04-21 07:35 -26.74622 153.25946 11235 ft 271 kts 132°
2026-04-21 07:35 -26.75857 153.27550 12095 ft 278 kts 131°
2026-04-21 07:36 -26.77128 153.29199 12990 ft 288 kts 131°
2026-04-21 07:36 -26.78445 153.30908 13918 ft 294 kts 131°
2026-04-21 07:36 -26.79801 153.32669 14672 ft 304 kts 132°
2026-04-21 07:36 -26.81218 153.34431 15416 ft 305 kts 139°
2026-04-21 07:37 -26.82992 153.35713 16155 ft 306 kts 159°
2026-04-21 07:37 -26.85047 153.36183 16885 ft 309 kts 178°
2026-04-21 07:37 -26.87221 153.36139 17648 ft 312 kts 181°
2026-04-21 07:37 -26.89379 153.36072 18421 ft 314 kts 181°
2026-04-21 07:38 -26.91576 153.36008 19215 ft 316 kts 181°
2026-04-21 07:38 -26.93759 153.35942 20005 ft 318 kts 181°
2026-04-21 07:38 -26.95965 153.35878 20819 ft 320 kts 182°
2026-04-21 07:38 -26.98199 153.35812 21646 ft 321 kts 182°
2026-04-21 07:39 -27.00439 153.35745 22487 ft 323 kts 182°
2026-04-21 07:39 -27.02680 153.35680 23344 ft 323 kts 182°
2026-04-21 07:39 -27.04920 153.35612 24210 ft 324 kts 182°
2026-04-21 07:39 -27.07160 153.35547 25066 ft 323 kts 182°
2026-04-21 07:40 -27.09379 153.35480 25903 ft 323 kts 183°
2026-04-21 07:40 -27.11613 153.35414 26739 ft 322 kts 183°
2026-04-21 07:40 -27.13864 153.35347 27572 ft 320 kts 183°
2026-04-21 07:40 -27.16078 153.35281 28373 ft 319 kts 183°
2026-04-21 07:41 -27.18295 153.35216 29146 ft 317 kts 184°
2026-04-21 07:41 -27.20476 153.35152 29887 ft 315 kts 184°
2026-04-21 07:41 -27.22659 153.35086 30593 ft 313 kts 184°
2026-04-21 07:41 -27.24831 153.35022 31272 ft 311 kts 184°
2026-04-21 07:42 -27.26997 153.34958 31914 ft 309 kts 184°
2026-04-21 07:42 -27.29128 153.34894 32418 ft 312 kts 184°
2026-04-21 07:42 -27.31369 153.34824 32408 ft 329 kts 184°
2026-04-21 07:42 -27.33716 153.34746 32417 ft 344 kts 185°
2026-04-21 07:43 -27.36135 153.34410 32426 ft 357 kts 194°
2026-04-21 07:43 -27.38544 153.33537 32546 ft 366 kts 204°
2026-04-21 07:43 -27.40806 153.32165 32808 ft 372 kts 211°
2026-04-21 07:43 -27.43033 153.30658 33149 ft 376 kts 211°
2026-04-21 07:44 -27.45283 153.29143 33550 ft 377 kts 211°
2026-04-21 07:44 -27.47530 153.27628 33945 ft 379 kts 211°
2026-04-21 07:44 -27.49793 153.26100 34419 ft 378 kts 211°
2026-04-21 07:44 -27.52047 153.24579 34952 ft 375 kts 211°
2026-04-21 07:45 -27.54259 153.23085 35469 ft 372 kts 211°
2026-04-21 07:45 -27.56470 153.21591 35945 ft 370 kts 211°
2026-04-21 07:45 -27.58688 153.20090 36407 ft 368 kts 211°
2026-04-21 07:45 -27.60867 153.18616 36802 ft 368 kts 212°
2026-04-21 07:46 -27.63064 153.17128 37149 ft 368 kts 212°
2026-04-21 07:46 -27.65255 153.15643 37476 ft 368 kts 212°
2026-04-21 07:46 -27.67455 153.14154 37814 ft 367 kts 212°
2026-04-21 07:46 -27.69622 153.12683 38093 ft 367 kts 212°
2026-04-21 07:47 -27.71819 153.11194 38393 ft 367 kts 212°
2026-04-21 07:47 -27.74014 153.09703 38670 ft 367 kts 212°
2026-04-21 07:47 -27.76190 153.08226 38915 ft 367 kts 212°
2026-04-21 07:47 -27.78393 153.06729 39143 ft 368 kts 212°
2026-04-21 07:48 -27.80586 153.05238 39401 ft 367 kts 212°
2026-04-21 07:48 -27.82866 153.03908 39648 ft 368 kts 204°
2026-04-21 07:48 -27.85257 153.02856 39868 ft 368 kts 203°
2026-04-21 07:48 -27.87627 153.01828 40049 ft 369 kts 203°
2026-04-21 07:49 -27.90039 153.00777 40169 ft 371 kts 203°
2026-04-21 07:49 -27.92482 152.99710 40164 ft 375 kts 203°
2026-04-21 07:49 -27.97403 152.97559 40166 ft 384 kts 203°
2026-04-21 07:50 -28.02395 152.95373 40170 ft 388 kts 203°
2026-04-21 07:50 -28.07453 152.93156 40183 ft 388 kts 203°
2026-04-21 07:51 -28.12496 152.90929 40194 ft 387 kts 203°
2026-04-21 07:51 -28.17513 152.88702 40190 ft 386 kts 203°
2026-04-21 07:52 -28.22496 152.86487 40194 ft 386 kts 203°
2026-04-21 07:52 -28.27501 152.84259 40200 ft 386 kts 203°
2026-04-21 07:53 -28.32488 152.82036 40200 ft 386 kts 203°
2026-04-21 07:53 -28.37516 152.79794 40205 ft 386 kts 203°
2026-04-21 07:54 -28.42481 152.77577 40211 ft 385 kts 203°
2026-04-21 07:54 -28.47483 152.75340 40214 ft 385 kts 203°
2026-04-21 07:55 -28.52460 152.73114 40213 ft 385 kts 203°
2026-04-21 07:55 -28.57438 152.70883 40214 ft 384 kts 203°
2026-04-21 07:56 -28.62435 152.68643 40214 ft 384 kts 203°
2026-04-21 07:56 -28.67397 152.66415 40213 ft 384 kts 203°
2026-04-21 07:57 -28.72355 152.64188 40219 ft 384 kts 203°
2026-04-21 07:57 -28.77314 152.61957 40213 ft 384 kts 203°
2026-04-21 07:58 -28.82289 152.59717 40222 ft 384 kts 203°
2026-04-21 07:58 -28.87188 152.57239 40225 ft 383 kts 208°
2026-04-21 07:59 -28.91904 152.54419 40227 ft 384 kts 208°
2026-04-21 07:59 -28.96623 152.51602 40223 ft 383 kts 208°
2026-04-21 08:00 -29.01328 152.48793 40224 ft 382 kts 208°
2026-04-21 08:00 -29.06040 152.45979 40228 ft 382 kts 208°
2026-04-21 08:01 -29.10745 152.43167 40230 ft 382 kts 208°
2026-04-21 08:02 -29.17806 152.38943 40227 ft 382 kts 208°
2026-04-21 08:02 -29.22507 152.36130 40231 ft 381 kts 208°
2026-04-21 08:03 -29.27210 152.33311 40233 ft 381 kts 208°
2026-04-21 08:03 -29.31899 152.30499 40237 ft 382 kts 208°
2026-04-21 08:04 -29.36595 152.27681 40240 ft 382 kts 208°
2026-04-21 08:04 -29.41290 152.24860 40244 ft 382 kts 208°
2026-04-21 08:05 -29.46011 152.22020 40244 ft 381 kts 208°
2026-04-21 08:05 -29.50690 152.19202 40245 ft 380 kts 208°
2026-04-21 08:06 -29.55366 152.16383 40244 ft 380 kts 208°
2026-04-21 08:06 -29.60053 152.13556 40244 ft 380 kts 208°
2026-04-21 08:07 -29.64715 152.10739 40247 ft 380 kts 208°
2026-04-21 08:07 -29.69421 152.07960 40245 ft 380 kts 204°
2026-04-21 08:08 -29.74507 152.06319 40252 ft 381 kts 194°
2026-04-21 08:08 -29.79684 152.04973 40253 ft 382 kts 195°
2026-04-21 08:09 -29.84850 152.03626 40249 ft 381 kts 195°
2026-04-21 08:09 -29.90023 152.02275 40248 ft 381 kts 195°
2026-04-21 08:10 -29.95219 152.00917 40247 ft 381 kts 195°
2026-04-21 08:10 -30.00362 151.99570 40252 ft 382 kts 195°
2026-04-21 08:11 -30.05548 151.98210 40258 ft 382 kts 195°
2026-04-21 08:11 -30.10742 151.96848 40258 ft 382 kts 195°
2026-04-21 08:12 -30.15938 151.95483 40256 ft 382 kts 194°
2026-04-21 08:12 -30.21123 151.94119 40267 ft 381 kts 195°
2026-04-21 08:13 -30.26265 151.92766 40279 ft 381 kts 195°
2026-04-21 08:13 -30.31430 151.91400 40280 ft 380 kts 195°
2026-04-21 08:14 -30.36411 151.89307 40281 ft 379 kts 203°
2026-04-21 08:14 -30.41273 151.87035 40279 ft 379 kts 203°
2026-04-21 08:15 -30.46192 151.84738 40282 ft 379 kts 203°
2026-04-21 08:15 -30.51052 151.82469 40282 ft 379 kts 203°
2026-04-21 08:16 -30.55945 151.80183 40285 ft 379 kts 203°
2026-04-21 08:16 -30.60850 151.77892 40281 ft 379 kts 203°
2026-04-21 08:17 -30.65755 151.75597 40286 ft 380 kts 202°
2026-04-21 08:17 -30.70654 151.73303 40283 ft 379 kts 203°
2026-04-21 08:18 -30.75545 151.71011 40278 ft 379 kts 203°
2026-04-21 08:18 -30.80432 151.68718 40281 ft 379 kts 203°
2026-04-21 08:19 -30.85322 151.66423 40283 ft 379 kts 203°
2026-04-21 08:19 -30.90200 151.64131 40281 ft 379 kts 203°
2026-04-21 08:20 -30.95087 151.61832 40286 ft 379 kts 202°
2026-04-21 08:20 -30.99982 151.59526 40283 ft 379 kts 203°
2026-04-21 08:21 -31.04872 151.57220 40284 ft 379 kts 202°
2026-04-21 08:21 -31.09763 151.54912 40283 ft 379 kts 202°
2026-04-21 08:22 -31.14686 151.52585 40284 ft 380 kts 202°
2026-04-21 08:22 -31.19556 151.50282 40273 ft 380 kts 202°
2026-04-21 08:23 -31.24450 151.47965 40273 ft 380 kts 203°
2026-04-21 08:23 -31.29342 151.45645 40275 ft 379 kts 203°
2026-04-21 08:24 -31.34244 151.43318 40277 ft 379 kts 203°
2026-04-21 08:24 -31.39144 151.40999 40283 ft 380 kts 202°
2026-04-21 08:25 -31.44077 151.38794 40285 ft 380 kts 202°
2026-04-21 08:25 -31.49028 151.36587 40287 ft 379 kts 202°
2026-04-21 08:26 -31.53930 151.34398 40288 ft 376 kts 202°
2026-04-21 08:26 -31.58807 151.32216 40286 ft 375 kts 202°
2026-04-21 08:27 -31.63687 151.30031 40289 ft 375 kts 202°
2026-04-21 08:27 -31.68576 151.27838 40290 ft 376 kts 202°
2026-04-21 08:28 -31.73450 151.25652 40294 ft 376 kts 202°
2026-04-21 08:28 -31.78338 151.23454 40299 ft 375 kts 202°
2026-04-21 08:29 -31.83208 151.21263 40299 ft 375 kts 202°
2026-04-21 08:29 -31.88072 151.19072 40302 ft 375 kts 202°
2026-04-21 08:30 -31.92971 151.16862 40306 ft 375 kts 202°
2026-04-21 08:30 -31.97844 151.14674 40313 ft 376 kts 202°
2026-04-21 08:31 -32.02728 151.12486 40306 ft 376 kts 202°
2026-04-21 08:31 -32.07608 151.10297 40308 ft 377 kts 202°
2026-04-21 08:32 -32.12548 151.08078 40311 ft 378 kts 202°
2026-04-21 08:32 -32.17475 151.05862 40309 ft 378 kts 202°
2026-04-21 08:33 -32.22373 151.03657 40311 ft 377 kts 202°
2026-04-21 08:33 -32.27294 151.01440 40298 ft 376 kts 202°
2026-04-21 08:34 -32.32171 150.99239 40309 ft 375 kts 202°
2026-04-21 08:34 -32.37066 150.97028 40312 ft 376 kts 202°
2026-04-21 08:35 -32.41938 150.94824 40308 ft 376 kts 202°
2026-04-21 08:35 -32.46844 150.92685 40305 ft 377 kts 198°
2026-04-21 08:36 -32.52043 150.91830 40301 ft 382 kts 182°
2026-04-21 08:36 -32.57366 150.92570 40303 ft 385 kts 175°
2026-04-21 08:37 -32.62670 150.93514 40305 ft 387 kts 175°
2026-04-21 08:37 -32.68019 150.94463 40309 ft 388 kts 175°
2026-04-21 08:38 -32.73354 150.95412 40310 ft 387 kts 175°
2026-04-21 08:38 -32.78682 150.96359 40302 ft 387 kts 175°
2026-04-21 08:39 -32.84016 150.97310 40310 ft 386 kts 175°
2026-04-21 08:39 -32.89336 150.98259 40308 ft 386 kts 175°
2026-04-21 08:40 -32.94645 150.99206 40315 ft 387 kts 175°
2026-04-21 08:40 -32.99972 151.00157 40313 ft 387 kts 175°
2026-04-21 08:41 -33.05299 151.01111 40316 ft 387 kts 175°
2026-04-21 08:41 -33.10645 151.02068 40310 ft 387 kts 175°
2026-04-21 08:42 -33.15986 151.03026 40291 ft 389 kts 175°
2026-04-21 08:42 -33.21320 151.03983 40300 ft 388 kts 175°
2026-04-21 08:43 -33.26662 151.04980 40299 ft 388 kts 174°
2026-04-21 08:43 -33.31972 151.06018 40305 ft 387 kts 174°
2026-04-21 08:44 -33.37294 151.07057 40309 ft 387 kts 174°
2026-04-21 08:44 -33.42622 151.08099 40310 ft 388 kts 174°
2026-04-21 08:45 -33.47951 151.09142 40307 ft 388 kts 174°
2026-04-21 08:45 -33.53294 151.10188 40314 ft 387 kts 174°
2026-04-21 08:46 -33.58618 151.11234 40310 ft 388 kts 174°
2026-04-21 08:46 -33.63913 151.12273 40312 ft 388 kts 174°
2026-04-21 08:47 -33.69244 151.13321 40310 ft 388 kts 174°
2026-04-21 08:47 -33.74605 151.14377 40313 ft 388 kts 174°
2026-04-21 08:48 -33.79921 151.15424 40322 ft 387 kts 174°
2026-04-21 08:48 -33.85230 151.16472 40317 ft 387 kts 174°
2026-04-21 08:49 -33.90549 151.17351 40320 ft 384 kts 181°
2026-04-21 08:49 -33.95817 151.16693 40326 ft 379 kts 197°
2026-04-21 08:50 -34.00682 151.14282 40322 ft 378 kts 208°
2026-04-21 08:50 -34.05333 151.11328 40318 ft 378 kts 208°
2026-04-21 08:51 -34.09990 151.08374 40318 ft 378 kts 208°
2026-04-21 08:51 -34.14635 151.05423 40320 ft 378 kts 208°
2026-04-21 08:52 -34.19271 151.02473 40316 ft 377 kts 208°
2026-04-21 08:52 -34.23928 150.99509 40328 ft 378 kts 208°
2026-04-21 08:53 -34.28589 150.96536 40319 ft 377 kts 208°
2026-04-21 08:53 -34.33223 150.93576 40328 ft 377 kts 208°
2026-04-21 08:54 -34.37858 150.90614 40330 ft 377 kts 208°
2026-04-21 08:54 -34.42509 150.87636 40337 ft 377 kts 208°
2026-04-21 08:55 -34.47127 150.84677 40338 ft 377 kts 208°
2026-04-21 08:55 -34.51775 150.81694 40339 ft 377 kts 208°
2026-04-21 08:56 -34.56418 150.78705 40333 ft 378 kts 208°
2026-04-21 08:56 -34.61022 150.75662 40344 ft 378 kts 209°
2026-04-21 08:57 -34.65651 150.72597 40347 ft 379 kts 209°
2026-04-21 08:57 -34.70293 150.69519 40349 ft 379 kts 209°
2026-04-21 08:58 -34.74921 150.66447 40345 ft 378 kts 209°
2026-04-21 08:58 -34.79524 150.63388 40355 ft 378 kts 209°
2026-04-21 08:59 -34.84110 150.60338 40356 ft 378 kts 209°
2026-04-21 08:59 -34.88719 150.57266 40361 ft 378 kts 209°
2026-04-21 09:00 -34.93340 150.54189 40362 ft 379 kts 208°
2026-04-21 09:00 -34.98320 150.52019 40358 ft 381 kts 195°
2026-04-21 09:01 -35.03464 150.50505 40365 ft 382 kts 195°
2026-04-21 09:01 -35.08630 150.48975 40348 ft 382 kts 195°
2026-04-21 09:02 -35.13806 150.47437 40343 ft 382 kts 195°
2026-04-21 09:02 -35.18951 150.45906 40356 ft 382 kts 195°
2026-04-21 09:03 -35.26680 150.43602 40365 ft 381 kts 195°
2026-04-21 09:03 -35.31856 150.42056 40369 ft 381 kts 195°
2026-04-21 09:04 -35.36968 150.40527 40368 ft 380 kts 195°
2026-04-21 09:04 -35.42115 150.38985 40365 ft 381 kts 195°
2026-04-21 09:05 -35.47269 150.37437 40369 ft 381 kts 195°
2026-04-21 09:05 -35.52418 150.35892 40371 ft 381 kts 195°
2026-04-21 09:06 -35.57549 150.34348 40372 ft 381 kts 196°
2026-04-21 09:06 -35.62717 150.32790 40373 ft 381 kts 196°
2026-04-21 09:07 -35.67851 150.31241 40367 ft 382 kts 195°
2026-04-21 09:07 -35.73006 150.29683 40363 ft 382 kts 195°
2026-04-21 09:08 -35.78174 150.28120 40370 ft 381 kts 195°
2026-04-21 09:08 -35.83318 150.26562 40362 ft 382 kts 195°
2026-04-21 09:09 -35.88486 150.24994 40368 ft 383 kts 195°
2026-04-21 09:09 -35.93668 150.23421 40371 ft 383 kts 195°
2026-04-21 09:10 -35.98848 150.21845 40368 ft 383 kts 195°
2026-04-21 09:10 -36.04014 150.20271 40371 ft 382 kts 195°
2026-04-21 09:11 -36.09188 150.18694 40370 ft 383 kts 195°
2026-04-21 09:11 -36.14355 150.17114 40373 ft 382 kts 195°
2026-04-21 09:12 -36.19495 150.15543 40362 ft 382 kts 195°
2026-04-21 09:12 -36.24662 150.13960 40359 ft 382 kts 195°
2026-04-21 09:13 -36.29810 150.12383 40358 ft 381 kts 195°
2026-04-21 09:13 -36.34941 150.10806 40356 ft 378 kts 195°
2026-04-21 09:14 -36.40024 150.09244 40357 ft 376 kts 195°
2026-04-21 09:14 -36.45130 150.07672 40370 ft 376 kts 195°
2026-04-21 09:15 -36.50182 150.06114 40368 ft 377 kts 195°
2026-04-21 09:15 -36.55264 150.04544 40380 ft 377 kts 195°
2026-04-21 09:16 -36.60370 150.02966 40377 ft 377 kts 195°
2026-04-21 09:16 -36.65461 150.01390 40378 ft 377 kts 195°
2026-04-21 09:17 -36.70541 149.99814 40384 ft 376 kts 195°
2026-04-21 09:17 -36.75610 149.98241 40380 ft 377 kts 195°
2026-04-21 09:18 -36.80699 149.96658 40381 ft 376 kts 195°
2026-04-21 09:18 -36.85757 149.95084 40388 ft 377 kts 195°
2026-04-21 09:19 -36.90839 149.93500 40380 ft 376 kts 195°
2026-04-21 09:19 -36.95937 149.91908 40383 ft 376 kts 195°
2026-04-21 09:20 -37.01000 149.90326 40378 ft 377 kts 195°
2026-04-21 09:20 -37.06070 149.88739 40379 ft 377 kts 195°
2026-04-21 09:21 -37.11152 149.87146 40381 ft 377 kts 195°
2026-04-21 09:21 -37.16267 149.85539 40380 ft 377 kts 195°
2026-04-21 09:22 -37.21340 149.83945 40380 ft 377 kts 195°
2026-04-21 09:22 -37.26423 149.82346 40379 ft 377 kts 195°
2026-04-21 09:23 -37.31492 149.80747 40380 ft 377 kts 195°
2026-04-21 09:23 -37.36582 149.79140 40377 ft 377 kts 195°
2026-04-21 09:24 -37.41664 149.77534 40375 ft 377 kts 195°
2026-04-21 09:24 -37.46763 149.75920 40373 ft 378 kts 195°
2026-04-21 09:25 -37.51861 149.74304 40372 ft 378 kts 195°
2026-04-21 09:25 -37.56967 149.72684 40373 ft 378 kts 195°
2026-04-21 09:26 -37.61861 149.70395 40372 ft 377 kts 207°
2026-04-21 09:26 -37.66501 149.67342 40373 ft 378 kts 207°
2026-04-21 09:27 -37.71156 149.64281 40375 ft 377 kts 207°
2026-04-21 09:27 -37.75803 149.61223 40380 ft 377 kts 207°
2026-04-21 09:28 -37.80467 149.58148 40380 ft 377 kts 207°
2026-04-21 09:28 -37.85094 149.55095 40373 ft 378 kts 207°
2026-04-21 09:29 -37.89766 149.52008 40374 ft 378 kts 207°
2026-04-21 09:29 -37.94434 149.48920 40380 ft 379 kts 207°
2026-04-21 09:30 -37.99106 149.45824 40384 ft 379 kts 207°
2026-04-21 09:30 -38.03751 149.42740 40381 ft 379 kts 207°
2026-04-21 09:31 -38.08427 149.39633 40381 ft 379 kts 207°
2026-04-21 09:31 -38.13108 149.36517 40383 ft 380 kts 207°
2026-04-21 09:32 -38.17776 149.33406 40378 ft 380 kts 208°
2026-04-21 09:32 -38.22456 149.30283 40368 ft 380 kts 208°
2026-04-21 09:33 -38.27116 149.27167 40369 ft 380 kts 208°
2026-04-21 09:33 -38.31791 149.24039 40377 ft 380 kts 208°
2026-04-21 09:34 -38.36459 149.20908 40373 ft 381 kts 208°
2026-04-21 09:34 -38.41127 149.17775 40371 ft 381 kts 208°
2026-04-21 09:35 -38.45826 149.14615 40371 ft 381 kts 208°
2026-04-21 09:35 -38.50507 149.11462 40373 ft 382 kts 208°
2026-04-21 09:36 -38.55193 149.08302 40371 ft 382 kts 208°
2026-04-21 09:36 -38.59895 149.05127 40372 ft 382 kts 208°
2026-04-21 09:37 -38.64580 149.01958 40375 ft 382 kts 208°
2026-04-21 09:37 -38.69266 148.98782 40378 ft 382 kts 208°
2026-04-21 09:38 -38.73932 148.95618 40374 ft 382 kts 208°
2026-04-21 09:38 -38.78635 148.92423 40377 ft 382 kts 208°
2026-04-21 09:39 -38.83330 148.89227 40376 ft 383 kts 208°
2026-04-21 09:39 -38.88026 148.86028 40388 ft 383 kts 208°
2026-04-21 09:40 -38.92722 148.82823 40393 ft 383 kts 208°
2026-04-21 09:40 -38.97417 148.79614 40388 ft 384 kts 208°
2026-04-21 09:41 -39.02144 148.76378 40389 ft 384 kts 208°
2026-04-21 09:41 -39.06839 148.73160 40394 ft 384 kts 208°
2026-04-21 09:42 -39.11541 148.69931 40398 ft 384 kts 208°
2026-04-21 09:42 -39.16248 148.66695 40394 ft 384 kts 208°
2026-04-21 09:43 -39.20949 148.63457 40394 ft 384 kts 208°
2026-04-21 09:43 -39.25677 148.60194 40389 ft 385 kts 208°
2026-04-21 09:44 -39.30394 148.56937 40388 ft 385 kts 208°
2026-04-21 09:44 -39.35101 148.53680 40392 ft 385 kts 208°
2026-04-21 09:45 -39.39800 148.50424 40385 ft 385 kts 208°
2026-04-21 09:45 -39.44514 148.47154 40387 ft 385 kts 208°
2026-04-21 09:46 -39.49249 148.43863 40389 ft 386 kts 208°
2026-04-21 09:46 -39.53939 148.40598 40386 ft 385 kts 208°
2026-04-21 09:47 -39.58652 148.37312 40385 ft 386 kts 208°
2026-04-21 09:47 -39.63393 148.34001 40386 ft 386 kts 208°
2026-04-21 09:48 -39.68131 148.30687 40386 ft 386 kts 208°
2026-04-21 09:48 -39.72841 148.27388 40386 ft 387 kts 208°
2026-04-21 09:49 -39.77570 148.24071 40391 ft 387 kts 208°
2026-04-21 09:49 -39.82295 148.20750 40384 ft 386 kts 208°
2026-04-21 09:50 -39.87009 148.17433 40381 ft 386 kts 208°
2026-04-21 09:50 -39.91710 148.14121 40386 ft 386 kts 208°
2026-04-21 09:51 -39.96449 148.10776 40385 ft 387 kts 208°
2026-04-21 09:51 -40.01155 148.07448 40400 ft 387 kts 208°
2026-04-21 09:52 -40.05886 148.04097 40406 ft 388 kts 208°
2026-04-21 09:52 -40.10851 148.01413 40406 ft 388 kts 194°
2026-04-21 09:53 -40.16253 148.00339 40405 ft 390 kts 188°
2026-04-21 09:53 -40.21589 147.99428 40404 ft 390 kts 188°
2026-04-21 09:54 -40.26981 147.98506 40405 ft 389 kts 188°
2026-04-21 09:54 -40.32318 147.97592 40403 ft 389 kts 188°
2026-04-21 09:55 -40.37708 147.96668 40409 ft 389 kts 188°
2026-04-21 09:55 -40.43061 147.95746 40400 ft 390 kts 188°
2026-04-21 09:56 -40.48433 147.94821 40401 ft 390 kts 188°
2026-04-21 09:56 -40.53799 147.93896 40399 ft 390 kts 188°
2026-04-21 09:57 -40.59181 147.92966 40401 ft 390 kts 188°
2026-04-21 09:57 -40.64556 147.92035 40402 ft 390 kts 188°
2026-04-21 09:58 -40.69916 147.91106 40395 ft 389 kts 188°
2026-04-21 09:58 -40.75298 147.90172 40398 ft 389 kts 188°
2026-04-21 09:59 -40.80656 147.89239 40404 ft 389 kts 188°
2026-04-21 09:59 -40.86006 147.88307 40409 ft 389 kts 188°
2026-04-21 10:00 -40.91376 147.87370 40109 ft 393 kts 188°
2026-04-21 10:00 -40.94097 147.86894 39549 ft 392 kts 188°
2026-04-21 10:00 -40.96749 147.86430 39027 ft 389 kts 188°
2026-04-21 10:01 -40.99422 147.85962 38510 ft 386 kts 188°
2026-04-21 10:01 -41.02081 147.85496 38002 ft 386 kts 188°
2026-04-21 10:01 -41.04739 147.85031 37510 ft 387 kts 188°
2026-04-21 10:01 -41.07405 147.84563 37031 ft 388 kts 188°
2026-04-21 10:02 -41.12786 147.83617 36059 ft 390 kts 188°
2026-04-21 10:02 -41.15451 147.83148 35556 ft 391 kts 188°
2026-04-21 10:02 -41.18149 147.82674 35039 ft 393 kts 188°
2026-04-21 10:03 -41.20890 147.82190 34515 ft 394 kts 187°
2026-04-21 10:03 -41.23607 147.81711 34005 ft 396 kts 187°
2026-04-21 10:03 -41.26346 147.81227 33460 ft 397 kts 188°
2026-04-21 10:03 -41.29041 147.80751 32945 ft 394 kts 188°
2026-04-21 10:04 -41.31744 147.80273 32422 ft 391 kts 188°
2026-04-21 10:04 -41.34416 147.79800 31903 ft 387 kts 188°
2026-04-21 10:04 -41.37066 147.79330 31394 ft 384 kts 188°
2026-04-21 10:04 -41.39722 147.78860 30878 ft 381 kts 188°
2026-04-21 10:05 -41.42325 147.78398 30375 ft 377 kts 188°
2026-04-21 10:05 -41.44904 147.77940 29872 ft 374 kts 188°
2026-04-21 10:05 -41.47473 147.77484 29379 ft 371 kts 188°
2026-04-21 10:05 -41.50012 147.77033 28887 ft 368 kts 188°
2026-04-21 10:06 -41.52526 147.76585 28404 ft 364 kts 188°
2026-04-21 10:06 -41.55002 147.76144 27926 ft 361 kts 188°
2026-04-21 10:06 -41.57483 147.75702 27451 ft 358 kts 188°
2026-04-21 10:06 -41.59936 147.75264 26980 ft 355 kts 188°
2026-04-21 10:07 -41.62362 147.74832 26517 ft 352 kts 187°
2026-04-21 10:07 -41.64772 147.74405 26053 ft 351 kts 187°
2026-04-21 10:07 -41.67189 147.73976 25588 ft 351 kts 188°
2026-04-21 10:07 -41.69605 147.73544 25122 ft 350 kts 188°
2026-04-21 10:08 -41.72012 147.73112 24662 ft 349 kts 187°
2026-04-21 10:08 -41.74432 147.72678 24197 ft 347 kts 187°
2026-04-21 10:08 -41.76794 147.72253 23743 ft 346 kts 187°
2026-04-21 10:08 -41.79171 147.71826 23277 ft 344 kts 187°
2026-04-21 10:09 -41.81537 147.71402 22821 ft 343 kts 187°
2026-04-21 10:09 -41.83906 147.70975 22361 ft 341 kts 187°
2026-04-21 10:09 -41.86227 147.70558 21916 ft 341 kts 187°
2026-04-21 10:09 -41.88566 147.70137 21459 ft 340 kts 187°
2026-04-21 10:10 -41.90928 147.69711 21004 ft 339 kts 187°
2026-04-21 10:10 -41.93228 147.69296 20560 ft 338 kts 187°
2026-04-21 10:10 -41.95547 147.68877 20110 ft 337 kts 187°
2026-04-21 10:10 -41.97881 147.68455 19660 ft 336 kts 187°
2026-04-21 10:11 -42.00190 147.68039 19213 ft 334 kts 187°
2026-04-21 10:11 -42.02495 147.67622 18776 ft 333 kts 187°
2026-04-21 10:11 -42.04781 147.67209 18336 ft 333 kts 187°
2026-04-21 10:11 -42.07070 147.66795 17898 ft 332 kts 186°
2026-04-21 10:12 -42.09353 147.66812 17461 ft 329 kts 168°
2026-04-21 10:12 -42.11527 147.67670 17021 ft 326 kts 160°
2026-04-21 10:12 -42.13688 147.68640 16577 ft 325 kts 160°
2026-04-21 10:12 -42.15830 147.69591 16153 ft 324 kts 160°
2026-04-21 10:13 -42.17970 147.70543 15722 ft 323 kts 160°
2026-04-21 10:13 -42.20092 147.71486 15297 ft 322 kts 160°
2026-04-21 10:13 -42.22187 147.72417 14882 ft 320 kts 160°
2026-04-21 10:13 -42.24308 147.73361 14454 ft 319 kts 160°
2026-04-21 10:14 -42.26397 147.74291 14034 ft 317 kts 160°
2026-04-21 10:14 -42.28485 147.75220 13607 ft 315 kts 160°
2026-04-21 10:14 -42.30583 147.76062 13187 ft 315 kts 168°
2026-04-21 10:14 -42.32768 147.76157 12691 ft 317 kts 187°
2026-04-21 10:15 -42.34857 147.75259 12210 ft 316 kts 208°
2026-04-21 10:15 -42.36572 147.73494 11652 ft 317 kts 229°
2026-04-21 10:15 -42.37804 147.71048 11159 ft 313 kts 242°
2026-04-21 10:15 -42.38880 147.68514 10783 ft 308 kts 241°
2026-04-21 10:16 -42.39959 147.65994 10107 ft 313 kts 241°
2026-04-21 10:16 -42.41031 147.63487 9661 ft 309 kts 241°
2026-04-21 10:16 -42.42092 147.61009 9299 ft 295 kts 241°
2026-04-21 10:16 -42.43109 147.58632 9141 ft 293 kts 242°
2026-04-21 10:17 -42.44124 147.56253 8783 ft 296 kts 241°
2026-04-21 10:17 -42.45150 147.53850 8493 ft 290 kts 242°
2026-04-21 10:17 -42.46145 147.51515 8194 ft 289 kts 242°
2026-04-21 10:17 -42.47147 147.49164 7898 ft 288 kts 242°
2026-04-21 10:18 -42.48140 147.46828 7611 ft 287 kts 242°
2026-04-21 10:18 -42.49136 147.44482 7315 ft 286 kts 242°
2026-04-21 10:18 -42.50125 147.42152 7026 ft 281 kts 242°
2026-04-21 10:18 -42.51076 147.39912 6753 ft 273 kts 242°
2026-04-21 10:19 -42.52013 147.37703 6481 ft 265 kts 242°
2026-04-21 10:19 -42.52922 147.35559 6218 ft 258 kts 242°
2026-04-21 10:19 -42.53804 147.33475 5962 ft 251 kts 243°
2026-04-21 10:19 -42.54660 147.31453 5710 ft 245 kts 243°
2026-04-21 10:20 -42.55531 147.29511 5465 ft 240 kts 234°
2026-04-21 10:20 -42.56797 147.28085 5202 ft 236 kts 210°
2026-04-21 10:20 -42.58197 147.27011 4956 ft 228 kts 215°
2026-04-21 10:20 -42.59522 147.25865 4704 ft 222 kts 213°
2026-04-21 10:21 -42.60796 147.24887 4846 ft 195 kts 209°
2026-04-21 10:21 -42.62005 147.24068 5052 ft 195 kts 206°
2026-04-21 10:21 -42.63280 147.23398 5353 ft 197 kts 191°
2026-04-21 10:21 -42.64624 147.23647 5386 ft 195 kts 149°
2026-04-21 10:22 -42.65561 147.24904 5279 ft 188 kts 118°
2026-04-21 10:22 -42.66206 147.26439 5040 ft 188 kts 115°
2026-04-21 10:22 -42.66846 147.27979 4782 ft 187 kts 117°
2026-04-21 10:22 -42.67602 147.29379 4573 ft 181 kts 126°
2026-04-21 10:23 -42.68485 147.30620 4240 ft 182 kts 133°
2026-04-21 10:23 -42.69382 147.31784 3897 ft 179 kts 132°
2026-04-21 10:23 -42.70267 147.32971 3525 ft 177 kts 130°
2026-04-21 10:23 -42.71104 147.34154 3187 ft 174 kts 129°
2026-04-21 10:24 -42.71945 147.35313 2903 ft 168 kts 131°
2026-04-21 10:24 -42.72763 147.36423 2738 ft 170 kts 129°
2026-04-21 10:24 -42.73583 147.37587 2550 ft 170 kts 129°
2026-04-21 10:24 -42.74421 147.38724 2393 ft 170 kts 131°
2026-04-21 10:25 -42.75258 147.39850 2249 ft 169 kts 131°
2026-04-21 10:25 -42.76111 147.40958 2104 ft 170 kts 133°
2026-04-21 10:25 -42.76925 147.42004 2063 ft 159 kts 129°
2026-04-21 10:25 -42.77675 147.43083 1892 ft 154 kts 126°
2026-04-21 10:26 -42.78373 147.44167 1422 ft 149 kts 126°
2026-04-21 10:26 -42.79094 147.45100 1126 ft 139 kts 133°
2026-04-21 10:26 -42.79771 147.45990 912 ft 131 kts 129°
2026-04-21 10:26 -42.80390 147.46870 727 ft 126 kts 129°
2026-04-21 10:27 -42.81049 147.47713 637 ft 137 kts 132°
2026-04-21 10:27 -42.81720 147.48630 489 ft 132 kts 131°
2026-04-21 10:27 -42.82372 147.49492 249 ft 128 kts 132°
2026-04-21 10:27 -42.82985 147.50323 60 ft 123 kts 132°
2026-04-21 10:28 -42.83546 147.51086 18 ft 101 kts 131°
2026-04-21 10:28 -42.83935 147.51616 19 ft 53 kts 135°
2026-04-21 10:28 -42.84117 147.51859 21 ft 13 kts 135°
2026-04-21 10:28 -42.84163 147.51923 22 ft 9 kts 40°
2026-04-21 10:29 -42.84108 147.51851 21 ft 14 kts 309°
2026-04-21 10:29 -42.84027 147.51739 20 ft 19 kts 315°
2026-04-21 10:29 -42.83904 147.51570 18 ft 30 kts 315°
2026-04-21 10:29 -42.83778 147.51401 17 ft 17 kts 314°
2026-04-21 10:30 -42.83796 147.51285 16 ft 16 kts 219°
2026-04-21 10:30 -42.83847 147.51215 17 ft 1 kts 227°
2026-04-21 10:30 -42.83868 147.51184 16 ft 7 kts 234°
2026-04-21 10:30 -42.83850 147.51129 16 ft 9 kts 318°
2026-04-21 10:31 -42.83792 147.51051 16 ft 14 kts 315°
2026-04-21 10:31 -42.83723 147.50958 17 ft 12 kts 315°
2026-04-21 10:31 -42.83675 147.50880 17 ft 9 kts 284°
2026-04-21 10:31 -42.83695 147.50812 18 ft 7 kts 228°
2026-04-21 10:32 -42.83732 147.50795 18 ft 5 kts 163°
2026-04-21 10:32 -42.83765 147.50812 18 ft 4 kts 175°
2026-04-21 10:32 -42.83781 147.50789 18 ft 4 kts 270°
2026-04-21 10:32 -42.83778 147.50737 19 ft 5 kts 274°
2026-04-21 10:33 -42.83777 147.50720 19 ft 0 kts 274°